EYESAT A

Satellite information

Favourite Embed

Satellite Type and Status

PAYLOADIN ORBIT

Key statistics

Satellite EYESAT A at a glance.

Uptime

11661

Days in orbit

Revolutions

≈ 14.3

Per day

Orbit

SSO

Sun Synchronous Orbit

Inclination

98.7

Latest

Satellite identification and parameters

Extended collection of information and parameters for EYESAT A.

Object identification

Identified? True

Debris? False

Object name: EYESAT A

International designator: 1993-061C

Object number (NORAD): 22825

Object ID (CCSDS): 22825

Country: UNITED STATES OF AMERICA (US)

Current information (Y/N): Y

RCS size: MEDIUM

Orbital parameters

Period: 100.641 minutes

Inclination: 98.7298 deg

SMA: 7167.122 km

Apoapsis: 794.417 km

Periapsis: 783.556 km

RAAN: 303.6911 deg

Eccentricy: 0.00075773

Argument of periapsis: 230.2489 deg

Mean anomaly: 129.8026 deg

Mean motion: 14.3082195 rev/day

Mean motion (dot): 0.00000132 rev/day2

B* drag term: 0.000067662128 1/REarth

Two-line elements (TLE)

Creation date: Aug. 30, 2025, 3:38 a.m.

Reference frame: TEME

Reference center: EARTH

Epoch: Aug. 29, 2025, 6:09 p.m. UTC

TLE line 0: 0 EYESAT A

TLE line 1: 1 22825U 93061C 25241.75640017 .00000132 00000-0 67662-4 0 9999

TLE line 2: 2 22825 98.7298 303.6911 0007577 230.2489 129.8026 14.30821950665324

Live tracking on map

Real-time ground track for satellite EYESAT A.

In-orbit conjunctions

A list of the most updated potential collisions computed for object EYESAT A.

Target Orbit TCA Probability of collision Miss distance Type
THOR ABLESTAR DEB LEO 2025-03-02 18:23:05 0.0001536993 145.0 (m) DEBRIS
COSMOS 1375 DEB LEO 2024-12-12 14:51:08 0.0005544004 390.0 (m) DEBRIS
RADARSAT SSO 2024-11-28 07:46:41 0.0001289259 170.0 (m) PAYLOAD
CZ-6A DEB SSO 2024-11-06 19:37:53 0.0001933973 443.0 (m) DEBRIS
METEOR 2-7 DEB LEO 2024-10-11 00:40:31 0.0001734542 333.0 (m) DEBRIS

Associated space launch

The satellites SPOT 1, 2 and 3 (Satellite Probatoire de l'Observation de la Terre) were the first generation of SPOT earth observation satellites operated by Spot Image.

EYESAT A was lifted into orbit during the mission ‘Ariane 40 | SPOT 3’, on board a Ariane 40 space rocket.

The launch took place on Sept. 26, 1993, 1:45 a.m. from Ariane Launch Area 2.

For more information about the launch, click the button.

Launch to space Ariane 40 | SPOT 3
Ariane 40 | SPOT 3

Agency: N/A

Status: Launch Successful

Launch date: Sept. 26, 1993, 1:45 a.m. UTC

Rocket: Ariane 40

Launch pad: Ariane Launch Area 2

Location: Guiana Space Centre, French Guiana

...

Latest news about this satellite

There are no fresh news available about this satellite. Check back as we update our databases every day.


Newsletter sign-up

Weekly statistics, charts and insights to help you stay on top of the space industry.